Find Starlink 37555

NORAD ID: 69431 Int'l Des: 2026-126 Owner: SPXS Country: US Constellation: starlink operational
LEOCIRCULARRETROGRADE

当前视图

正在加载3D地球...

About Starlink 37555

Starlink 37555 (NORAD 69431) is a starlink constellation satellite launched Jun 7, 2026 by SPXS of US. It operates in LEO, CIRCULAR, RETROGRADE orbit with a mass of 575.00 kg.

即将过境

Passes for default location (London). Set your location on the main map for personalized predictions.

高度历史

Loading altitude history...

两行轨道根数

1 69431U 26126M 26206.58335648 .00099195 00000-0 18055-2 0 9992
2 69431 97.2846 68.3733 0001367 90.4140 315.8314 15.49144369 5956
Epoch: Jul 25, 2026 • Age: 20 hours

当前状态

高度 431.4 km
远地点 / 近地点 N/A
速度 7.66 km/s
星下点 82.75°N, 118.37°W
发射日期 Jun 7, 2026
运行时间 0.1 years
类型 internet

技术详情

分类 Payload
质量 575.00 kg
干质量 530.00 kg
总质量 575.00 kg
长度 0.30 m
直径 4.10 m
跨度 29.00 m
形状 Box + pan
制造商 SPXS
平台类型 Starlink V2MO
阶段状态 In Orbit
所有者/国家 SPXS/US

Most Searched